GFSGL_sfc_rhum_000.txt.gz
RH
28 27 28 30 29 29 32 36 39 43 41 42 41 43 44 47 44 48 58 67 64 68 71 80 88 87 92 90 92 94 95 94 95 91 93 90 68 59 72 69 81 86 87
29 26 28 29 31 33 33 32 34 36 38 40 40 39 38 46 48 54 59 55 68 69 73 85 87 86 92 91 94 90 92 90 95 94 89 93 79 58 66 62 78 74 87
24 26 30 32 33 35 35 34 33 35 35 36 35 41 40 45 48 54 58 62 66 67 83 81 89 88 93 94 93 94 93 90 95 96 93 91 61 57 65 61 70 74 77
26 29 32 34 34 38 38 37 36 36 35 35 36 38 44 44 49 54 60 73 70 68 75 80 80 87 91 94 92 92 89 97 95 97 95 93 61 62 64 73 74 76 79
25 30 34 34 35 36 37 39 38 38 36 37 35 38 42 41 37 55 67 73 69 70 73 70 82 86 84 86 94 93 91 97 97 97 96 89 68 78 74 72 71 82 87
27 29 31 35 33 38 40 41 40 42 44 41 41 41 44 38 47 54 55 64 67 73 80 74 82 84 82 83 92 84 88 95 95 96 92 94 76 74 68 73 72 86 95
25 25 28 29 34 37 38 38 43 47 46 47 44 46 46 45 47 49 55 56 73 77 79 79 86 78 86 85 89 85 83 85 84 88 96 87 71 69 65 72 71 78 79
25 27 28 30 33 37 40 45 48 46 48 49 48 46 49 46 49 48 50 55 78 76 76 84 92 89 87 87 92 94 92 88 92 88 93 93 62 62 60 62 65 72 85
30 30 29 31 36 42 48 51 52 52 51 48 45 49 50 47 51 49 50 64 79 77 74 83 89 90 88 86 91 94 93 92 89 90 84 91 77 71 60 62 69 84 90
33 32 30 34 41 46 49 52 52 52 44 44 45 48 49 47 52 50 54 60 73 76 75 76 82 85 87 88 94 96 97 91 93 90 87 92 89 77 69 57 65 77 81
32 31 35 38 44 45 49 52 51 50 48 52 52 50 48 51 50 55 56 54 63 76 73 78 86 84 86 89 92 97 96 88 88 83 82 94 88 72 60 56 57 68 76
33 36 39 42 39 35 47 52 50 51 57 60 56 58 54 52 55 57 57 57 59 71 75 78 86 85 90 91 92 94 92 87 91 94 96 93 89 69 60 57 57 62 58
35 40 43 41 40 40 46 48 50 54 63 62 57 64 63 59 61 61 60 60 65 68 70 74 81 86 87 89 88 91 91 96 94 93 93 92 79 64 56 58 55 60 71
38 41 43 45 44 45 45 46 52 57 69 66 68 69 72 70 68 65 57 64 67 71 73 79 84 86 84 87 89 89 97 96 93 90 90 84 69 64 61 58 65 63 70
42 42 44 45 46 49 48 50 48 61 65 62 61 68 76 77 70 64 63 63 70 72 77 85 87 90 90 90 90 88 93 98 96 95 89 83 74 63 60 56 57 67 69
44 47 49 51 54 56 58 57 56 61 62 65 64 66 62 65 64 63 63 71 76 77 81 89 92 92 92 93 93 93 93 97 96 93 90 78 68 65 61 54 59 65 65
51 50 53 55 56 61 62 69 77 63 65 65 64 63 62 63 66 60 64 72 73 74 92 91 93 94 93 93 94 94 96 96 92 92 86 73 65 61 59 57 59 62 62
55 58 64 64 66 67 74 75 71 77 79 77 67 64 65 68 60 66 70 71 74 82 90 93 92 94 94 93 94 94 94 95 98 90 81 72 62 61 57 60 60 62 65
60 65 64 70 72 70 76 78 80 82 84 83 76 70 66 66 58 60 63 70 75 83 85 93 90 92 93 92 93 94 95 96 97 91 85 74 64 60 59 59 60 66 68
68 64 66 72 70 76 82 86 87 85 86 81 85 83 77 73 71 62 62 69 71 83 81 91 89 89 93 93 94 94 94 95 99 91 90 82 69 65 61 62 63 68 68
76 78 69 80 82 80 88 85 84 90 91 92 87 74 68 72 74 57 56 63 69 74 72 83 90 87 91 92 93 94 95 95 96 96 92 85 75 71 67 63 65 64 71
81 83 84 84 82 83 86 88 87 88 82 80 78 72 68 70 72 58 55 56 66 69 68 75 88 87 90 93 94 94 96 95 96 93 92 82 81 75 71 70 69 71 74
83 84 86 84 85 82 86 83 82 82 82 76 74 72 72 74 75 65 57 60 66 70 69 75 84 88 87 90 91 94 97 96 96 95 88 82 78 78 78 74 74 75 78
91 87 87 88 88 87 88 88 87 82 80 77 77 76 78 78 76 74 69 67 67 73 74 77 80 82 84 88 89 91 93 96 96 97 87 85 82 84 80 79 78 76 79
90 89 90 91 91 92 91 86 86 86 85 80 78 73 77 77 78 79 77 73 73 78 77 78 80 77 79 82 90 93 94 98 97 99 80 79 82 83 82 80 80 80 79
91 89 90 91 95 93 94 93 89 85 84 80 80 82 82 83 89 80 78 77 76 80 77 80 77 71 74 78 88 97 97 98 98 99 92 84 87 86 82 81 83 86 84

GFSGL_sfc_rhum_006.txt.gz
RH
38 39 39 38 34 36 40 42 44 47 47 49 52 55 56 57 56 61 65 69 75 71 74 77 77 78 88 89 88 89 95 96 98 91 89 88 89 93 88 82 88 89 85
40 39 37 37 36 36 37 38 42 43 46 48 50 52 52 54 57 62 67 61 65 70 72 76 75 73 81 81 87 92 93 92 97 96 89 92 93 94 89 90 93 89 91
39 40 39 37 38 38 38 38 40 42 45 47 48 51 52 56 59 64 68 64 67 71 74 76 76 77 82 84 84 87 93 91 93 97 94 94 96 94 89 89 96 93 90
40 39 38 36 37 39 39 40 41 43 45 46 47 50 56 58 57 62 63 72 76 71 74 78 76 77 80 82 87 88 91 95 96 96 94 95 97 92 92 95 95 97 92
37 38 35 35 38 40 42 43 43 45 44 47 50 52 55 53 45 57 66 78 81 80 79 76 76 74 65 63 80 91 92 94 98 97 95 97 95 96 92 93 96 97 95
33 34 35 37 40 42 43 43 44 48 52 52 52 53 57 46 50 52 56 61 75 79 78 74 77 69 72 65 71 78 84 96 97 97 94 95 91 92 94 93 97 98 98
31 32 34 37 41 43 42 44 48 52 55 55 56 57 58 59 54 53 53 55 69 75 72 77 74 60 73 76 75 77 84 82 87 93 93 91 93 91 95 92 95 90 92
31 32 32 37 41 42 42 47 52 56 55 56 58 59 62 55 54 54 53 63 69 77 79 81 84 84 77 73 76 88 84 86 92 90 88 90 92 92 94 82 80 78 89
31 30 33 36 39 42 47 52 56 58 57 58 58 60 60 59 59 56 53 65 78 82 78 81 88 78 72 69 85 91 89 87 81 91 87 88 90 92 94 88 81 89 97
31 31 33 37 40 47 51 54 56 57 55 57 56 56 57 66 62 58 55 60 77 72 75 86 73 70 69 78 87 93 95 91 92 93 94 94 90 91 92 83 71 81 88
34 35 39 41 45 48 52 56 56 58 60 62 57 60 66 66 70 60 58 62 67 70 72 70 79 73 73 78 80 90 93 90 89 94 96 95 95 96 94 92 65 70 82
38 42 43 46 41 44 53 55 57 60 63 62 65 70 72 69 66 64 61 64 62 65 69 71 83 72 72 77 77 82 82 84 91 95 96 96 97 95 92 86 62 62 62
43 44 45 46 48 49 54 55 58 59 64 65 70 78 78 69 74 66 66 68 68 69 65 70 69 72 77 79 80 82 81 90 92 94 95 93 90 87 84 83 66 59 59
41 44 49 51 51 52 51 54 59 62 66 68 75 79 76 72 78 82 76 73 72 70 69 75 75 77 78 79 84 86 88 90 93 95 90 89 87 88 89 86 81 66 71
40 44 48 50 56 54 55 57 56 60 62 69 76 76 82 84 77 72 69 70 72 66 70 83 89 88 86 90 88 88 90 91 93 95 93 95 93 90 87 87 76 70 76
40 48 50 54 56 60 64 65 58 63 61 65 64 67 71 69 69 70 71 72 68 62 80 91 92 91 88 93 93 92 90 92 92 94 92 92 92 90 84 85 85 75 77
46 48 54 58 59 67 70 76 80 74 66 66 66 65 68 67 68 70 72 73 68 64 93 91 92 90 88 93 93 93 92 92 93 94 95 89 89 89 83 85 86 73 78
50 55 60 67 71 73 78 84 87 88 89 89 75 75 73 70 70 72 73 75 80 81 92 92 90 91 89 94 92 92 91 91 92 94 94 89 88 92 86 87 77 75 78
62 68 69 74 78 79 85 87 88 90 93 91 83 78 77 76 76 74 71 85 84 88 90 89 87 88 89 95 92 92 92 92 93 94 95 92 89 90 85 79 72 79 78
69 67 77 81 81 83 87 92 94 91 91 91 89 93 94 93 95 91 88 90 84 84 87 87 86 86 89 96 92 92 93 91 92 94 95 93 93 85 78 74 72 78 76
80 77 70 81 86 90 96 90 88 89 90 89 94 91 76 81 91 92 88 91 77 76 74 79 85 88 90 93 90 92 93 92 93 93 94 92 96 81 74 69 71 73 73
80 81 84 88 93 87 87 88 90 88 85 86 92 87 77 77 81 92 90 81 78 69 63 72 85 86 90 94 87 90 92 93 94 94 95 95 93 84 73 70 70 72 73
87 90 91 88 88 77 86 81 84 85 86 93 87 82 79 91 93 94 88 78 75 71 67 76 87 89 89 90 87 91 93 93 95 96 96 95 92 86 78 72 70 73 76
93 88 85 83 82 86 91 96 90 85 83 92 93 84 84 91 95 92 83 77 76 78 80 86 83 87 86 83 83 86 88 90 93 96 96 96 96 85 84 78 71 73 78
90 85 82 84 88 90 93 95 94 92 90 90 94 92 90 91 93 92 81 83 87 86 82 84 83 82 83 80 80 82 88 96 96 98 97 97 97 76 80 81 75 76 80
88 82 85 87 91 94 95 95 93 92 92 90 90 94 97 96 95 87 84 89 91 90 86 86 83 79 79 80 80 90 95 94 94 98 97 98 96 80 79 82 77 80 79

GFSGL_sfc_rhum_009.txt.gz
RH
36 38 38 41 40 43 46 49 52 52 52 53 51 54 57 58 57 62 64 70 74 75 78 81 79 80 87 89 92 93 93 93 98 91 84 82 83 87 85 82 89 91 88
37 38 40 39 39 39 42 43 46 47 50 49 50 53 54 56 58 62 67 64 72 77 77 81 79 69 84 86 90 91 90 88 95 97 90 88 87 85 87 88 93 85 89
37 39 40 41 39 38 38 40 42 44 45 48 50 52 53 56 59 64 68 71 74 77 77 79 79 80 85 87 88 90 88 87 94 96 93 90 92 90 91 93 95 92 81
40 40 41 40 38 38 37 41 42 44 44 47 48 50 56 58 60 65 67 74 77 72 75 79 79 81 84 86 87 87 87 92 92 94 93 94 94 93 95 96 95 93 94
40 42 42 40 38 40 43 44 43 45 44 47 48 53 56 56 48 59 67 76 82 82 81 77 81 78 68 65 71 80 86 92 93 94 93 96 94 97 97 96 95 92 93
40 42 43 42 39 40 43 45 46 48 49 52 55 55 56 49 50 50 55 70 77 83 84 83 82 69 76 67 69 70 72 93 96 96 95 97 94 97 97 97 95 96 98
40 41 41 39 39 40 42 47 48 50 54 56 56 57 59 60 55 50 51 61 74 78 82 82 74 61 76 85 78 71 72 83 86 93 97 93 93 92 96 97 96 97 94
39 39 37 36 37 41 46 48 50 55 57 57 56 58 62 58 55 52 54 65 72 79 82 83 85 86 88 75 74 77 83 85 87 90 95 92 92 92 91 91 95 96 95
38 36 35 35 38 43 48 50 55 59 59 59 57 59 64 61 57 60 57 70 78 84 81 84 87 91 75 65 74 87 89 81 78 83 86 90 83 88 92 97 97 98 98
36 34 33 34 38 43 48 54 59 59 54 55 56 61 59 66 62 61 55 68 79 78 76 83 73 62 64 67 77 92 90 88 89 87 90 93 84 90 90 96 96 94 92
34 35 36 36 39 42 52 59 58 58 60 62 60 62 62 66 73 62 57 66 66 68 69 67 65 66 69 67 70 87 91 86 85 89 95 96 94 94 95 95 96 85 89
36 37 38 41 34 43 54 58 58 61 64 63 64 64 68 72 67 64 60 60 63 76 75 71 81 71 69 70 73 78 82 80 88 90 93 96 95 94 95 92 89 74 68
36 39 41 43 45 51 55 56 60 63 66 64 67 71 74 74 74 67 67 67 68 72 74 72 67 71 74 78 78 76 82 88 90 92 92 94 93 91 91 93 83 77 70
37 43 47 46 52 52 50 52 58 63 68 68 70 77 81 78 81 83 81 85 78 78 76 84 75 74 77 79 80 86 85 88 91 93 92 93 94 92 92 90 89 73 77
38 43 46 47 51 50 54 56 58 58 60 66 74 77 82 88 84 76 75 84 91 80 72 89 91 90 91 89 86 88 88 88 91 91 91 93 95 92 91 88 81 72 78
38 41 45 50 57 56 57 61 60 61 65 68 69 73 78 73 66 66 68 71 73 71 83 92 93 92 93 91 91 93 91 88 90 91 91 93 94 91 90 88 81 73 80
40 43 54 52 53 62 65 66 68 68 65 64 64 64 66 69 68 68 71 72 72 70 89 92 95 92 91 91 92 93 94 91 89 93 93 94 90 88 92 88 82 75 78
46 54 58 60 63 67 69 72 78 82 90 88 75 74 72 67 70 73 73 74 89 83 90 92 93 92 91 92 93 92 92 91 91 92 92 94 95 90 93 89 84 78 78
61 67 66 72 74 72 78 81 85 88 93 95 95 83 76 74 75 75 73 90 94 95 91 91 90 93 91 91 93 92 92 92 92 93 92 92 94 93 90 92 82 79 78
70 68 71 78 82 81 84 86 91 96 96 88 88 92 93 93 95 93 91 92 95 94 91 90 88 93 90 92 94 93 92 92 92 93 92 92 94 93 89 86 84 80 80
85 80 75 81 82 86 90 94 90 94 94 96 88 86 75 90 94 88 94 95 95 82 79 78 86 92 92 92 95 92 91 92 89 92 93 92 94 93 94 79 80 77 81
83 86 85 88 90 90 87 90 94 94 92 86 88 84 77 82 84 89 95 95 94 86 76 71 80 92 92 94 94 92 88 92 90 91 93 93 93 94 91 84 78 78 80
84 88 92 90 89 80 87 89 91 92 89 86 93 95 89 88 95 95 94 95 93 86 86 80 90 95 90 91 90 93 91 92 93 94 96 94 92 95 90 85 78 80 81
92 89 87 86 88 88 89 94 96 91 92 90 93 95 96 94 90 94 95 94 90 89 91 91 92 92 88 84 85 87 88 91 92 94 95 96 95 95 93 84 80 79 82
87 86 85 87 88 92 94 97 97 96 95 90 92 96 97 96 96 94 95 96 93 96 95 91 88 90 85 82 81 81 87 94 95 95 95 96 96 97 92 86 83 80 82
89 85 86 89 92 93 96 97 96 92 91 87 87 96 90 92 97 97 96 97 84 91 93 87 92 87 83 81 82 86 94 94 92 93 96 97 97 97 85 84 81 82 82

GFSGL_sfc_rhum_015.txt.gz
RH
32 33 34 35 33 34 35 37 40 40 40 41 41 42 42 41 40 41 43 44 49 46 49 53 54 52 54 55 62 66 70 71 84 63 50 48 50 51 56 65 72 69 64
35 33 34 35 36 35 34 33 34 38 41 39 39 40 39 41 39 41 42 36 44 49 48 52 53 47 58 60 61 68 68 64 76 81 63 61 60 68 74 79 73 69 68
34 34 35 37 37 34 32 33 33 33 36 37 40 40 39 40 41 40 41 42 46 47 49 52 55 58 61 58 60 60 64 64 71 83 83 74 71 70 82 83 81 81 70
36 36 39 37 38 36 34 35 34 32 33 35 36 37 40 40 40 42 44 47 47 47 50 56 57 62 61 60 62 66 65 76 81 86 82 77 82 83 89 96 91 90 88
36 38 39 37 37 36 38 36 32 32 30 32 33 36 39 40 36 45 48 48 50 51 54 55 61 61 64 58 50 58 70 81 80 82 80 82 86 91 94 90 94 88 81
35 36 40 39 38 39 38 35 35 36 32 33 32 34 41 34 48 55 52 50 51 56 59 55 54 62 59 65 64 65 62 73 83 78 87 92 91 89 91 94 85 92 93
34 34 37 39 40 39 37 36 40 39 33 34 34 36 38 40 53 52 53 43 51 54 57 57 54 44 58 59 64 68 70 71 67 75 87 91 92 89 93 93 93 91 83
37 35 36 37 39 38 37 38 37 35 37 37 36 37 42 43 54 53 50 44 52 58 60 60 61 60 60 62 63 67 65 66 70 72 85 90 91 91 94 93 90 81 82
41 36 37 37 39 40 41 40 36 37 38 38 38 43 43 41 56 54 49 51 56 57 57 59 63 66 66 62 60 74 71 64 61 70 78 78 85 90 92 93 90 91 84
42 39 36 36 38 41 42 42 40 37 39 38 39 38 46 38 56 57 52 51 53 54 56 60 67 65 66 66 66 68 71 68 84 76 81 87 89 90 92 79 79 85 92
41 39 40 39 39 38 42 40 41 38 40 39 40 41 40 45 48 58 57 51 53 54 55 56 55 68 72 65 65 67 73 76 81 84 86 91 90 90 82 85 80 93 93
44 42 41 39 36 38 43 42 38 42 42 42 42 45 45 42 56 59 60 59 58 57 59 57 66 76 68 63 66 74 70 77 83 85 88 90 91 91 87 80 84 92 85
45 45 42 39 36 39 40 43 42 41 44 44 44 45 45 47 50 62 63 61 62 62 63 70 76 68 67 65 71 73 76 80 88 89 88 90 90 85 85 81 82 89 86
44 42 42 40 41 37 38 36 42 44 46 45 47 48 48 52 56 57 58 61 71 69 71 70 72 72 67 68 70 73 73 83 89 89 89 88 86 88 85 90 98 96 97
39 39 40 42 38 38 37 38 38 38 42 45 51 49 53 57 55 61 64 69 69 68 75 75 78 72 68 69 71 74 76 81 88 89 88 89 87 87 88 92 94 93 98
37 39 41 40 40 43 45 48 53 54 57 56 58 52 54 58 65 69 70 66 68 69 71 80 79 72 71 73 74 77 77 80 85 89 89 89 88 88 91 89 93 92 97
42 41 42 43 42 49 50 56 73 67 64 65 68 68 71 70 69 68 66 66 69 70 77 75 76 74 73 74 75 77 83 79 83 89 90 89 87 86 90 95 93 93 94
64 63 60 60 60 62 64 69 72 84 85 76 67 65 66 68 67 65 68 71 72 69 75 76 75 74 74 74 74 78 85 79 85 89 90 89 88 89 90 94 92 92 92
78 82 84 84 80 78 78 78 79 78 73 67 72 76 70 68 68 68 69 70 67 71 74 76 75 75 72 72 74 87 86 82 82 89 89 89 88 90 90 94 89 89 85
89 86 88 90 89 84 83 83 82 78 66 70 74 73 75 75 72 69 70 70 71 74 74 77 76 76 74 76 86 90 86 82 82 88 89 90 90 89 92 95 90 85 84
90 85 82 81 79 79 80 75 72 74 78 80 75 72 79 72 70 70 66 70 69 68 69 71 74 76 80 82 82 84 81 82 86 87 89 90 90 91 90 92 89 81 76
86 80 80 81 81 84 83 79 82 80 75 72 73 73 72 74 73 68 71 67 67 68 67 70 74 75 78 82 82 79 80 85 86 86 89 92 91 90 91 94 90 79 79
84 82 83 86 84 83 82 74 71 72 73 74 75 74 75 75 74 78 74 70 70 68 70 75 81 80 77 78 77 81 83 81 82 89 94 93 92 92 91 94 95 80 80
85 84 84 84 82 81 80 79 78 81 78 78 80 79 80 82 82 78 76 74 73 72 72 72 74 79 80 78 75 77 78 78 81 91 91 94 94 93 90 92 94 82 79
85 83 81 82 83 81 80 83 84 83 82 81 80 78 80 79 76 74 76 78 78 72 70 71 74 77 79 79 77 75 80 91 91 94 91 92 94 94 93 92 92 88 82
85 79 82 84 86 86 88 88 86 82 82 81 80 82 79 78 80 82 78 79 78 74 74 75 76 80 82 79 78 86 91 94 93 93 93 93 95 95 95 95 93 88 82

GFSGL_sfc_rhum_021.txt.gz
RH
35 31 28 27 26 26 30 34 33 33 32 35 35 35 35 32 31 32 33 33 34 35 38 37 36 35 39 39 41 41 45 48 57 51 46 41 39 40 39 42 45 45 46
37 36 30 27 28 28 27 29 28 31 32 33 33 33 32 31 30 30 32 28 32 36 35 37 35 29 40 42 43 47 48 47 54 57 49 48 48 46 47 50 47 40 50
36 39 35 29 29 28 28 27 26 27 28 30 33 33 31 32 31 28 28 27 28 29 32 32 33 33 33 37 43 45 49 45 50 55 55 52 53 51 51 48 49 50 50
40 41 44 33 31 30 29 28 26 25 27 28 30 31 31 31 29 28 28 28 26 26 25 31 28 30 35 41 43 46 44 53 52 54 58 58 57 56 58 62 66 62 66
45 44 46 40 33 30 30 30 26 26 25 26 27 29 30 30 26 32 32 32 29 27 30 27 33 37 43 48 51 52 57 56 61 63 64 63 62 62 64 70 83 80 74
46 52 50 48 37 37 33 30 30 30 26 26 26 27 31 24 46 52 41 34 32 31 33 29 29 42 46 53 54 54 56 61 63 63 60 64 62 62 67 78 87 92 95
45 48 53 44 45 36 34 33 37 34 28 28 26 28 30 30 56 56 57 34 35 33 32 37 35 30 43 39 45 50 51 53 55 56 61 59 63 66 77 86 91 94 95
41 46 48 42 44 43 36 37 35 32 32 30 27 28 33 32 58 55 54 38 36 36 36 38 41 40 41 44 48 50 51 50 51 44 49 56 66 74 84 89 95 93 92
42 45 43 40 42 48 47 40 36 33 33 30 28 32 33 36 60 60 55 38 37 40 37 38 42 43 47 50 54 61 56 52 46 56 58 65 68 71 79 93 95 96 95
45 49 47 41 41 41 48 44 39 35 34 30 28 27 38 32 63 65 57 36 37 36 36 38 57 50 53 55 59 60 61 52 54 58 58 66 71 79 82 92 96 97 91
48 45 44 39 36 38 52 48 41 37 35 31 29 28 29 32 55 66 63 33 32 33 34 37 40 53 56 58 65 63 60 58 61 61 71 77 82 86 89 87 89 95 92
51 51 43 35 34 33 64 67 38 38 37 34 31 32 31 30 58 63 58 55 45 34 36 39 47 57 58 65 67 63 60 63 61 66 81 84 89 90 84 84 90 94 94
55 50 37 34 35 38 60 77 43 38 38 33 33 36 35 31 48 60 58 56 54 49 40 53 60 62 64 66 66 60 60 59 64 75 84 86 90 82 78 84 88 93 96
59 45 34 42 45 44 51 62 49 38 37 33 35 37 36 38 43 52 52 55 55 52 55 56 58 59 64 68 68 55 53 58 68 77 81 79 80 81 81 87 96 95 98
61 45 36 48 44 48 52 66 44 32 35 33 37 36 40 40 39 50 50 46 49 53 54 55 58 69 69 59 56 57 60 58 66 75 81 83 84 83 82 86 92 95 98
72 54 54 70 67 50 60 61 67 53 60 58 55 41 38 52 62 63 63 70 71 68 64 64 62 70 67 58 58 60 59 58 66 74 82 83 87 86 85 87 90 98 97
81 67 64 80 75 59 58 68 68 71 71 68 63 62 60 65 66 68 68 72 70 68 67 61 69 69 60 58 59 59 60 61 61 79 84 84 85 85 86 90 91 96 98
84 74 83 89 88 58 44 60 63 55 61 66 68 65 70 70 71 76 74 72 66 69 65 67 63 59 59 57 58 60 62 64 67 79 82 84 86 88 87 91 91 95 97
89 91 94 93 83 50 48 45 48 56 65 74 74 74 70 71 71 73 69 56 57 64 64 62 60 58 58 58 59 71 72 71 73 80 82 87 87 90 89 90 91 93 92
91 93 93 94 83 70 66 68 69 69 70 72 70 74 73 74 71 67 62 58 54 52 53 58 61 61 59 64 68 74 76 70 69 79 80 88 88 88 89 90 90 90 92
93 92 94 93 90 80 77 76 71 72 72 69 70 67 70 66 62 59 58 56 52 50 53 52 60 56 62 66 68 71 68 66 68 76 81 87 88 90 88 88 90 88 91
92 90 88 90 88 84 80 76 73 69 66 66 70 69 71 58 55 53 51 52 50 49 52 54 50 51 57 60 64 64 66 67 68 70 80 86 88 89 89 90 89 88 89
93 89 86 86 86 81 77 71 66 63 64 64 64 67 63 60 60 61 58 54 50 56 52 52 51 52 52 59 58 68 72 68 70 78 84 87 89 90 90 92 91 90 88
94 92 87 83 78 74 70 67 64 67 64 64 61 57 56 54 54 55 57 58 60 59 57 56 56 51 52 56 61 64 66 73 76 82 86 92 92 91 91 92 92 90 89
91 87 83 78 76 72 72 69 67 65 62 60 60 59 59 58 58 64 65 64 62 60 58 60 61 68 60 58 59 67 88 93 86 92 92 92 92 91 92 93 90 90 89
87 79 75 79 80 76 76 75 69 63 60 56 57 58 58 61 63 64 64 65 70 68 63 61 62 62 59 63 76 89 92 94 93 95 95 92 93 92 91 91 88 90 91

GFSGL_sfc_rhum_024.txt.gz
RH
33 39 42 42 41 34 34 48 47 45 42 42 42 41 41 41 43 48 51 53 52 56 52 56 57 53 59 59 61 62 64 68 76 70 68 65 61 58 56 56 57 60 58
42 42 42 43 46 39 36 37 42 45 41 40 41 41 39 40 42 44 46 42 49 54 55 53 52 41 53 58 63 61 65 67 75 74 72 68 67 64 60 59 57 47 53
40 46 49 48 51 44 36 36 34 37 37 38 41 42 40 40 41 41 41 41 46 50 53 54 52 51 54 58 59 65 69 62 72 76 72 71 74 65 58 66 60 55 51
36 42 60 59 58 52 46 37 36 32 34 37 41 41 41 39 38 38 38 42 44 45 48 48 47 49 49 49 56 62 62 73 78 79 80 76 70 72 66 71 70 67 67
33 39 63 69 59 53 58 45 36 35 32 35 39 41 41 38 34 37 37 40 43 44 43 42 48 45 41 46 60 75 77 84 83 85 81 77 64 68 69 66 75 70 66
31 33 46 70 64 61 66 70 47 39 36 36 37 40 41 34 48 54 45 42 42 43 47 43 40 49 44 46 51 56 63 80 84 86 72 68 62 67 67 68 80 88 88
33 33 38 53 61 56 65 75 77 60 40 38 36 38 40 38 55 56 57 44 47 47 48 49 42 35 60 54 47 47 53 52 54 62 66 68 66 73 76 78 81 90 94
36 36 37 52 54 51 56 78 82 82 43 40 34 37 40 39 58 57 58 50 52 50 48 50 55 53 55 55 60 64 67 68 65 57 60 66 69 66 74 81 89 92 91
38 37 50 52 51 51 56 78 84 87 64 40 35 37 39 39 60 60 52 53 52 53 52 53 56 58 49 46 63 74 76 73 56 55 60 61 64 65 72 88 95 95 95
38 54 53 52 54 55 51 59 83 86 82 40 35 35 46 55 64 62 51 50 56 57 56 54 62 58 50 52 71 79 87 82 73 67 67 72 70 76 76 86 94 97 96
41 52 56 57 58 55 48 46 82 88 88 48 36 35 38 52 59 66 60 46 50 54 54 57 60 58 56 59 60 83 85 74 69 74 80 74 82 80 84 83 87 95 97
45 52 60 59 56 51 43 54 74 88 92 59 36 38 39 51 65 70 63 52 54 49 52 58 72 65 60 60 68 67 64 62 75 84 75 81 86 85 79 81 86 93 94
46 53 64 64 58 48 38 62 69 84 89 64 37 40 46 54 64 71 68 61 54 56 61 72 70 67 64 64 68 58 60 80 84 88 76 89 86 75 75 84 88 93 95
50 59 68 70 64 48 48 52 77 83 86 66 40 44 48 62 64 68 62 64 59 60 62 72 68 68 63 68 71 78 71 76 83 85 74 88 76 77 81 87 94 95 97
54 69 76 70 60 62 56 70 78 83 77 56 41 40 55 62 62 64 66 65 70 64 73 76 84 86 83 83 80 74 77 77 85 85 78 90 82 81 84 86 91 96 97
62 81 80 78 71 72 74 78 80 85 84 70 55 42 43 54 69 70 69 68 71 70 77 83 82 84 82 74 77 78 77 74 82 83 84 89 86 87 88 87 90 96 98
83 88 83 84 79 86 84 84 92 88 84 61 60 58 58 63 70 76 79 79 72 70 83 83 82 83 79 77 77 78 81 82 75 80 89 91 86 86 87 90 92 93 97
90 87 89 90 91 91 88 90 90 80 78 70 70 68 72 74 77 79 79 76 80 78 84 83 83 77 76 76 75 80 80 82 80 81 89 89 88 89 88 92 93 95 98
92 92 95 96 96 93 90 88 81 78 74 78 78 77 76 78 78 77 75 77 83 88 84 78 75 72 76 76 78 81 84 85 82 84 90 90 88 90 90 90 93 92 95
93 90 94 97 95 90 90 87 82 84 84 82 83 85 82 83 88 82 74 73 75 81 80 78 72 64 72 78 81 84 86 81 82 84 88 93 90 88 90 91 91 92 93
96 95 93 94 92 88 91 92 87 87 89 89 88 82 77 80 79 76 79 77 72 71 72 68 67 65 76 79 80 82 82 81 82 87 92 96 91 90 90 90 90 89 90
95 97 96 95 92 91 89 85 84 82 82 84 84 78 73 73 73 72 73 69 66 65 66 62 62 58 72 69 65 80 82 81 84 86 85 92 92 88 89 90 90 90 90
95 95 97 94 92 87 87 83 80 79 82 82 80 76 71 75 76 73 70 68 66 67 63 60 58 58 57 58 60 80 83 85 86 88 91 93 92 91 91 92 91 92 91
96 97 97 97 97 96 95 94 90 82 77 79 75 72 74 73 73 69 68 69 67 66 64 64 67 72 59 62 75 85 94 93 93 93 93 94 94 91 91 92 91 90 90
96 94 93 92 92 88 84 80 76 72 68 66 67 70 74 70 73 78 79 77 74 71 64 72 70 71 66 72 85 85 92 93 93 94 97 94 93 91 91 92 90 89 87
89 86 85 85 84 83 84 82 76 69 66 66 68 69 70 74 78 77 77 78 84 80 71 71 77 77 66 83 82 92 94 95 96 94 96 95 93 92 92 91 90 90 88